Flag for Norway Weather past 2 weeks in Fredrikstad, Norway

Now
50 °F

Clear.


Feels Like: 45 °F
Forecast: 46 / 55 °F
Wind: 13 mph from North

Location: Rygge

Current Time: Sep 21, 2014 at 11:20:36 PM

Latest Report: Sep 21, 2014 at 10:20 PM


Visibility: 10 mi

Pressure: 29.83 "Hg

Humidity: 67%

Dew point: 39 °F

Location of FredrikstadLocation

Historic Weather in Fredrikstad — Graph

°F

Fredrikstad temperature yesterday

Maximum temperature yesterday: 63 °F (at 1:20 PM)
Minimum temperature yesterday: 45 °F (at 3:20 AM)
Average temperature yesterday: 53 °F

Past Weeks' High & Low Weather Summary

 TemperatureHumidityPressure
High70 °F (Sep 7, 2:20 PM)100% (Sep 7, 8:50 PM)30.48 "Hg (Sep 7, 8:50 PM)
Low45 °F (Sep 14, 3:20 AM)43% (Sep 13, 5:50 PM)29.77 "Hg (Sep 9, 2:20 AM)
Average56 °F82%30.14 "Hg
* Reported Sep 6 9:20 PM — Sep 21 9:50 PM, Fredrikstad, Weather by CustomWeather, © 2014

Note: Actual official high and low records may vary slightly from our data, if they occured in-between our weather recording intervals... More about our weather records

Advertising

Fredrikstad weather history for previous 24 hours

 ConditionsComfort  
Time TempWeatherWind HumidityBarometerVisibility
9:50 PM
Sep 21
52 °FClear.12 mph62%29.83 "Hg10 mi
9:20 PM52 °FPassing clouds.12 mph67%29.83 "HgN/A
8:50 PM54 °FClear.10 mph67%29.83 "Hg10 mi
8:20 PM54 °FClear.7 mph77%29.80 "Hg10 mi
7:50 PM54 °FSunny.6 mph77%29.80 "Hg10 mi
7:20 PM54 °FScattered showers. Scattered clouds.7 mph77%29.80 "HgN/A
6:50 PM54 °FScattered showers. Broken clouds.8 mph77%29.80 "HgN/A
6:20 PM55 °FLight rain. Partly sunny.12 mph72%29.80 "HgN/A
5:50 PM57 °FLight rain. Broken clouds.12 mph72%29.77 "HgN/A
5:20 PM59 °FScattered showers. Partly sunny.12 mph68%29.77 "HgN/A
4:50 PM57 °FSunny.7 mph72%29.77 "Hg10 mi
4:20 PM57 °FClear.10 mph72%29.80 "HgN/A
3:50 PM59 °FPassing clouds.12 mph63%29.80 "HgN/A
3:20 PM59 °FPassing clouds.9 mph63%29.80 "HgN/A
2:50 PM59 °FLight rain. Scattered clouds.10 mph68%29.80 "HgN/A
2:20 PM59 °FScattered clouds.9 mph68%29.80 "HgN/A
1:50 PM57 °FScattered clouds.14 mph67%29.80 "HgN/A
1:20 PM57 °FScattered clouds.12 mph72%29.80 "HgN/A
12:50 PM55 °FScattered clouds.14 mph77%29.80 "HgN/A
12:20 PM55 °FScattered clouds.13 mph77%29.80 "HgN/A
11:50 AM55 °FScattered clouds.12 mph82%29.80 "HgN/A
11:20 AM54 °FScattered clouds.12 mph88%29.80 "HgN/A
10:50 AM54 °FBroken clouds.13 mph88%29.80 "HgN/A
10:20 AM54 °FBroken clouds.13 mph94%29.77 "HgN/A
9:50 AM54 °FScattered clouds.10 mph94%29.77 "HgN/A
9:20 AM54 °FBroken clouds.5 mph94%29.77 "HgN/A
8:50 AM54 °FScattered clouds.2 mph94%29.77 "HgN/A
8:20 AM54 °FBroken clouds.2 mph94%29.77 "HgN/A
7:50 AM54 °FSleet. Fog.2 mph94%29.77 "HgN/A
7:20 AM54 °FSleet. Passing clouds.3 mph100%29.77 "Hg4 mi
6:50 AM54 °FLight rain. Fog.3 mph100%29.77 "Hg2 mi
6:20 AM54 °FLight rain. Fog.2 mph100%29.77 "Hg3 mi
5:50 AM54 °FRain. Overcast.3 mph100%29.77 "Hg2 mi
5:20 AM54 °FPartly cloudy.3 mph100%29.77 "Hg4 mi
4:50 AM54 °FPassing clouds.3 mph94%29.77 "Hg5 mi
4:20 AM54 °FLight rain. Passing clouds.No wind94%29.80 "HgN/A
3:50 AM54 °FPassing clouds.1 mph94%29.80 "HgN/A
3:20 AM54 °FPartly cloudy.1 mph94%29.80 "HgN/A
2:50 AM54 °FOvercast.1 mph94%29.80 "HgN/A
2:20 AM55 °FPassing clouds.2 mph88%29.80 "HgN/A
1:50 AM57 °FPartly cloudy.3 mph82%29.80 "HgN/A
1:20 AM57 °FMostly cloudy.6 mph82%29.80 "HgN/A
12:50 AM57 °FPassing clouds.6 mph88%29.83 "HgN/A
12:20 AM57 °FPassing clouds.6 mph82%29.83 "HgN/A
11:50 PM
Sep 20
57 °FPartly cloudy.6 mph88%29.83 "HgN/A
11:20 PM57 °FPassing clouds.5 mph88%29.83 "HgN/A
Weather by CustomWeather, © 2014

See weather overviewHow to use our weather pages